Wind_Speed
10 11 11 10 8 7 6 7 12 6 5 12 10 7 7 11 9 11 15 16 17 16 21 21 19 20 19 21 20 20 21 22 23 25 28 31 35 35
11 10 11 10 9 11 9 12 8 11 8 13 14 12 11 13 16 13 15 17 20 20 21 22 20 20 23 25 25 25 26 26 26 27 29 30 33 37
12 12 12 11 10 11 9 9 10 12 13 15 17 16 13 16 19 18 18 18 21 23 20 18 21 25 26 25 27 28 28 28 28 30 31 32 33 36
14 15 14 15 15 14 9 13 13 12 14 15 17 16 17 17 16 17 20 20 22 21 22 26 30 29 25 26 29 31 32 30 29 31 30 31 33 35
13 14 14 14 12 14 14 13 13 14 13 17 15 17 18 22 23 18 19 24 24 26 27 30 29 27 26 30 35 35 33 33 32 31 32 32 32 35
14 15 14 13 14 15 16 17 18 17 18 16 15 18 20 22 25 18 18 21 25 23 22 25 31 33 31 33 36 36 33 34 34 34 32 34 36 38
15 14 15 16 19 15 15 18 22 19 20 20 19 18 20 17 19 22 23 24 23 21 23 25 26 27 29 32 34 34 30 30 32 36 38 42 45 44
16 14 17 15 12 14 17 17 19 25 24 22 19 19 20 19 18 19 21 23 19 22 25 27 26 29 32 34 35 33 35 34 39 48 47 45 48 46
16 16 15 16 15 12 15 15 21 23 27 23 18 19 18 17 20 21 21 22 25 26 26 28 28 29 32 34 33 32 41 44 47 52 54 51 51 50
18 17 16 16 16 16 20 21 24 20 21 20 19 20 18 17 17 20 22 25 26 26 20 24 28 31 32 30 33 35 46 50 46 49 49 49 48 48
20 18 17 20 21 26 24 21 17 18 18 21 20 19 19 21 20 17 19 21 21 21 24 27 25 29 32 35 37 38 40 48 49 49 46 46 46 45
18 17 21 22 24 20 16 12 15 17 18 17 14 16 20 22 21 23 21 20 21 22 23 25 27 30 26 33 32 40 39 42 43 46 45 42 39 38
16 17 17 20 17 15 13 10 13 16 14 15 18 20 20 19 19 16 15 19 23 26 27 28 28 29 24 28 31 38 41 43 39 39 35 33 33 36
17 17 16 20 12 11 12 14 17 17 15 18 20 19 19 20 19 17 21 25 24 25 33 31 27 26 27 29 30 39 46 42 37 38 36 39 37 37
17 19 11 10 10 13 16 16 16 13 15 17 17 17 19 19 19 21 20 21 23 24 20 17 23 30 25 28 29 36 29 33 29 28 33 37 26 33
13 9 7 7 9 10 5 9 9 10 12 13 17 17 18 19 19 19 21 22 22 21 20 22 27 28 29 27 32 33 26 16 36 35 35 25 23 18
12 10 9 11 13 13 11 9 12 13 12 13 15 16 17 17 18 18 19 21 21 20 20 24 28 24 25 25 28 27 28 29 34 33 33 15 13 19
7 12 13 12 12 12 10 10 10 11 12 12 14 15 15 16 17 18 18 19 20 21 21 17 23 26 25 21 17 24 26 28 34 32 28 18 14 21
9 12 10 10 10 9 9 11 11 11 8 12 13 14 14 14 15 16 17 19 19 20 18 19 21 18 9 11 20 23 29 30 31 28 26 23 16 17
9 10 8 8 9 9 10 10 10 11 11 11 12 12 12 13 14 15 17 18 19 21 14 18 21 19 14 8 13 27 33 30 28 27 29 26 19 19
8 7 7 7 8 8 9 9 9 11 10 11 11 11 11 12 14 15 17 17 20 18 15 18 14 20 17 17 13 22 31 35 31 28 30 23 13 7
8 7 7 7 7 7 8 8 10 10 9 9 9 9 11 12 14 15 16 18 19 18 17 17 14 21 15 14 15 21 27 34 35 32 32 28 12 6
9 8 8 7 7 7 8 9 10 9 8 7 8 9 10 12 13 14 16 17 17 18 14 16 14 15 15 14 17 19 23 28 31 28 32 30 29 29
Wind_Direction
250 240 251 260 258 276 270 286 257 269 285 312 308 260 277 263 260 280 281 281 283 281 284 285 281 284 288 292 293 296 295 295 293 286 275 268 260 258
252 258 259 273 274 263 257 260 294 293 301 302 297 304 301 290 285 273 275 275 275 279 280 280 282 282 289 293 293 289 290 292 293 291 283 276 266 258
246 266 260 263 265 274 289 304 300 297 308 310 318 307 313 296 283 279 274 276 279 275 275 272 275 282 288 289 292 291 289 291 290 294 287 282 275 264
237 238 245 247 229 245 263 262 267 284 277 300 297 299 287 287 277 276 272 281 282 278 280 275 279 279 277 284 290 289 286 285 285 290 288 284 280 274
236 237 239 250 262 267 282 280 280 283 283 288 300 296 295 294 294 288 282 269 279 276 274 268 266 265 273 285 283 282 282 278 281 284 284 286 285 277
236 242 245 258 264 261 264 265 262 258 271 280 279 275 274 279 267 281 288 282 273 284 291 292 286 274 277 282 280 276 271 275 276 279 278 279 281 280
239 240 246 249 263 264 273 279 289 291 290 294 291 287 270 296 314 304 300 296 292 289 291 288 291 291 288 287 286 280 278 286 279 283 284 281 276 276
240 246 255 273 275 275 276 279 286 284 283 272 281 286 292 298 297 289 291 292 296 289 294 291 290 289 286 282 278 279 283 281 284 287 284 279 273 267
236 245 247 254 259 269 281 280 278 276 260 261 269 274 292 293 296 293 290 294 288 292 296 290 290 285 282 281 287 287 293 292 290 288 285 277 269 264
242 244 247 254 255 278 287 273 267 260 265 262 257 268 278 285 288 288 286 282 282 279 283 289 293 283 283 288 291 289 291 291 287 287 284 279 272 266
243 243 239 254 273 281 275 265 260 262 273 270 263 265 281 290 284 283 288 292 293 293 291 278 293 305 300 294 293 292 283 287 286 286 283 278 275 266
237 244 257 266 270 262 250 261 270 277 283 281 271 284 284 282 280 264 266 275 289 288 300 313 306 301 300 294 295 291 290 290 289 286 283 277 269 257
241 250 263 261 259 251 258 264 274 276 278 283 278 277 279 288 284 283 282 295 296 296 299 307 300 298 300 307 303 302 297 291 288 287 284 277 269 250
251 260 255 242 235 257 265 260 264 273 277 277 276 282 291 292 296 305 305 295 285 281 291 289 286 295 304 307 307 314 310 301 286 281 277 280 268 249
244 264 236 216 251 272 270 265 272 275 271 275 285 293 298 302 307 297 297 302 297 294 296 310 309 309 301 305 306 308 309 325 315 292 291 275 238 224
228 230 222 235 249 255 267 259 262 261 281 296 292 292 301 302 304 307 308 309 304 301 313 304 319 318 308 307 305 307 306 317 316 310 307 299 198 204
207 218 237 241 247 224 222 240 250 266 275 287 295 302 303 305 307 313 314 306 303 308 313 313 328 325 315 318 303 305 308 323 324 319 325 297 224 209
209 251 260 261 264 280 270 257 273 277 278 290 302 299 304 308 313 317 311 313 311 315 322 319 328 334 331 330 332 312 322 328 324 324 318 296 266 256
232 261 266 280 283 281 280 280 284 289 310 295 291 302 303 309 315 317 319 319 325 322 331 355 341 344 326 326 316 342 336 338 333 333 333 317 276 265
249 267 268 266 274 278 282 284 288 293 294 296 300 299 306 314 317 319 322 326 326 318 332 344 348 342 325 305 312 324 347 343 344 337 335 324 303 271
242 241 259 274 276 271 275 281 291 290 296 297 290 300 313 315 318 321 321 322 319 329 339 329 337 346 342 336 342 346 349 355 3 353 351 336 323 287
248 247 254 265 271 273 278 285 283 281 280 284 299 310 310 317 318 323 325 325 328 336 353 354 338 359 358 342 339 339 349 352 359 8 7 13 360 324
239 244 264 261 263 266 272 276 277 274 281 289 299 306 317 317 321 325 325 329 334 333 352 348 347 353 360 350 346 344 350 353 357 355 2 7 20 26
Height
833 834 834 831 831 831 832 834 834 832 830 828 828 829 829 829 829 830 829 828 826 825 824 824 823 821 820 819 817 815 813 811 809 808 807 807 807 809
830 830 831 830 829 829 829 828 829 828 827 827 827 826 827 826 826 825 825 824 821 818 818 817 817 816 815 813 811 809 807 805 803 801 800 799 799 799
828 829 829 829 828 826 825 825 826 826 824 824 824 824 824 823 822 821 819 818 817 813 811 811 810 808 807 806 805 803 801 799 797 795 792 791 790 790
821 823 824 824 824 824 824 822 823 822 822 820 820 821 819 817 815 814 814 812 809 807 806 803 802 802 800 798 797 795 793 791 789 787 785 783 782 782
817 819 820 820 821 821 821 819 819 819 818 817 816 816 816 812 811 808 807 806 804 800 797 794 793 793 791 789 787 785 783 782 780 778 777 775 774 772
814 816 815 816 818 819 819 818 816 815 814 813 811 811 809 806 804 800 800 800 797 794 790 789 788 785 782 780 777 774 773 771 770 769 767 766 765 764
809 811 811 811 813 814 814 814 814 812 809 807 805 803 802 799 799 797 795 793 790 787 784 783 780 777 774 772 768 765 762 762 761 759 757 755 754 752
806 806 806 806 807 807 808 809 811 811 809 807 803 800 799 798 797 795 793 788 784 785 780 776 775 770 768 763 758 756 754 752 749 746 744 742 740 739
801 802 801 802 803 804 803 802 801 802 802 801 798 797 796 794 793 791 787 785 781 779 778 770 769 762 758 753 749 746 743 740 737 733 728 726 725 725
794 796 797 800 799 798 796 795 795 793 794 794 793 792 791 790 789 787 784 780 775 771 770 762 761 753 748 744 741 737 733 729 723 718 712 709 708 707
789 790 791 791 792 791 789 787 787 788 788 786 786 786 785 785 784 783 779 773 768 767 765 756 750 744 741 735 731 727 721 714 707 701 696 693 691 692
782 784 783 785 784 783 783 785 785 784 783 782 782 781 780 777 776 774 772 769 765 759 757 753 748 742 730 728 722 716 706 698 692 686 680 677 676 677
777 780 781 779 779 780 780 781 781 780 780 779 777 774 772 771 769 767 766 764 760 755 754 751 744 737 734 719 710 703 695 683 676 670 665 662 661 663
772 773 774 774 776 777 777 776 777 777 777 775 771 768 767 765 764 763 761 760 757 753 748 744 739 733 725 715 701 688 681 672 665 656 651 647 645 646
770 770 772 773 774 774 774 775 775 776 774 771 768 766 766 764 762 759 756 754 750 745 741 738 734 727 720 711 701 689 677 665 658 649 641 635 629 632
766 769 771 771 771 772 773 772 772 772 770 768 768 765 763 761 759 756 752 749 745 739 737 733 728 722 715 709 699 686 676 668 656 644 634 623 623 626
764 766 767 767 765 765 766 768 768 767 766 765 764 762 761 759 756 753 750 746 741 735 731 727 722 717 710 704 693 684 673 663 653 643 632 623 622 623
762 763 760 759 760 760 761 762 763 763 763 763 763 761 758 756 754 751 747 743 737 732 726 722 718 712 704 695 690 681 673 662 650 641 632 625 621 621
760 756 756 757 758 758 759 761 761 761 761 762 760 759 757 753 751 748 744 740 734 730 725 721 717 712 705 696 687 682 673 661 651 637 633 625 619 618
756 753 754 755 757 759 760 760 760 760 759 758 758 756 754 751 749 746 742 737 732 726 721 720 716 712 708 700 689 680 673 663 653 643 631 622 615 613
748 751 754 755 756 757 758 759 759 759 758 758 756 754 752 750 747 744 740 735 729 722 718 717 715 711 705 700 692 682 672 664 657 648 638 624 617 611
748 750 752 754 755 756 757 757 758 757 755 755 753 752 751 749 745 742 737 732 726 721 719 717 714 708 705 701 694 686 675 666 657 651 644 640 633 623
749 750 752 753 754 755 756 756 755 754 753 753 752 751 749 747 744 740 735 730 724 720 718 717 712 708 706 702 697 689 681 672 662 652 645 639 633 621